Weather History for Ottumwa, IA

Change the Weather History Date:

Monday, December 24, 2012

  Actual Average Record
Temperature  
Mean Temperature 19 °F 24 °F  
Max Temperature 22 °F 33 °F 59 °F (1940)
Min Temperature 15 °F 15 °F -19 °F (1983)
Degree Days  
Heating Degree Days 46 41  
Month to date heating degree days 707 916  
Since 1 July heating degree days 2001 2214  
Cooling Degree Days 0 0  
Month to date cooling degree days 0 0  
Year to date cooling degree days 1237 938  
Moisture  
Dew Point 15 °F    
Average Humidity 80    
Maximum Humidity 92    
Minimum Humidity 67    
Precipitation  
Precipitation T in 0.04 in 1.20 in (1918)
Month to date precipitation 1.62 1.14  
Year to date precipitation 27.08 36.84  
Sea Level Pressure  
Sea Level Pressure 30.04 in    
Wind  
Wind Speed 15 mph (NW)    
Max Wind Speed 23 mph    
Max Gust Speed 28 mph    
Visibility 6 miles    
Events Snow    
T = Trace of Precipitation, MM = Missing Value Source: NWS Daily Summary

Daily Weather History Graph

Daily Weather History Graph

Search for Another Location

Airport:

Trip Planner

Search our weather history database for the weather conditions in past years. The results will help you decide how hot, cold, wet, or windy it might be!

Date:

Astronomy

Dec. 24, 2012 Rise Set
Actual Time 7:33 AM CST 4:46 PM CST
Civil Twilight 7:01 AM CST 5:17 PM CST
Nautical Twilight 6:27 AM CST 5:52 PM CST
Astronomical Twilight 5:53 AM CST 6:25 PM CST
Moon 2:14 PM CST (12/24) 4:11 AM CST (12/24)
Length of Visible Light 10h 15m
Length of Day
9h 13m
Waxing Gibbous, 88% of the Moon is Illuminated
Dec 24
Waxing Gibbous
Dec 28
Full
Jan 4
Last Quarter
Jan 11
New
Jan 18
First Quarter

Hourly Weather History & Observations

Time (CST) Temp. Windchill Dew Point Humidity Pressure Visibility Wind Dir Wind Speed Gust Speed Precip Events Conditions
12:53 AM 21.9 °F 10.4 °F 19.9 °F 92% 29.97 in 4.0 mi NNW 11.5 mph - N/A   Overcast
1:29 AM 21.2 °F 10.1 °F 19.4 °F 93% 29.93 in 3.0 mi NNW 10.4 mph - N/A   Overcast
1:53 AM 21.0 °F 8.6 °F 19.0 °F 92% 29.99 in 2.5 mi NW 12.7 mph - N/A   Overcast
2:28 AM 21.2 °F 8.9 °F 19.4 °F 93% 29.95 in 1.5 mi NW 12.7 mph - N/A   Overcast
2:53 AM 21.0 °F 9.3 °F 19.0 °F 92% 29.97 in 1.5 mi NNW 11.5 mph - N/A   Overcast
3:25 AM 21.2 °F 9.5 °F 19.4 °F 93% 29.92 in 0.8 mi NNW 11.5 mph - N/A   Overcast
3:53 AM 21.0 °F 9.3 °F 19.0 °F 92% 29.97 in 1.0 mi NW 11.5 mph - N/A   Overcast
4:24 AM 21.2 °F 11.7 °F 19.4 °F 93% 29.93 in 2.5 mi WNW 8.1 mph - N/A   Overcast
4:32 AM 21.2 °F 10.1 °F 19.4 °F 93% 29.93 in 3.0 mi NW 10.4 mph - N/A   Overcast
4:53 AM 19.9 °F 7.3 °F 18.0 °F 92% 29.97 in 3.0 mi NW 12.7 mph - N/A   Overcast
5:53 AM 19.0 °F 5.0 °F 16.0 °F 88% 29.98 in 3.0 mi WNW 15.0 mph - N/A   Overcast
6:53 AM 18.0 °F 3.1 °F 15.1 °F 88% 30.02 in 3.0 mi NW 16.1 mph 23.0 mph N/A   Overcast
7:11 AM 17.6 °F 4.3 °F 15.8 °F 93% 29.98 in 4.0 mi NW 12.7 mph - N/A   Overcast
7:53 AM 18.0 °F 5.4 °F 16.0 °F 92% 30.03 in 3.0 mi NW 11.5 mph - N/A   Overcast
8:01 AM 17.6 °F 5.7 °F 15.8 °F 93% 29.99 in 2.0 mi NW 10.4 mph - N/A   Overcast
8:35 AM 19.4 °F 4.5 °F 15.8 °F 86% 29.98 in 3.0 mi NW 17.3 mph 23.0 mph N/A   Overcast
8:53 AM 19.0 °F 3.2 °F 16.0 °F 88% 30.01 in 5.0 mi NNW 19.6 mph - N/A   Overcast
9:53 AM 19.0 °F 5.0 °F 14.0 °F 81% 30.04 in 6.0 mi NW 15.0 mph 23.0 mph 0.00 in   Haze
10:38 AM 19.4 °F 5.5 °F 12.2 °F 74% 30.02 in 5.0 mi NW 15.0 mph - 0.00 in Snow Light Snow
10:53 AM 19.0 °F 4.5 °F 12.0 °F 74% 30.06 in 4.0 mi NW 16.1 mph - 0.00 in Snow Light Snow
11:53 AM 19.0 °F 4.5 °F 10.9 °F 71% 30.05 in 7.0 mi WNW 16.1 mph 24.2 mph 0.00 in Snow Light Snow
12:53 PM 19.9 °F 3.2 °F 10.9 °F 68% 30.05 in 9.0 mi NW 23.0 mph 27.6 mph 0.00 in   Overcast
1:53 PM 19.9 °F 6.2 °F 12.0 °F 71% 30.04 in 7.0 mi NW 15.0 mph - 0.00 in   Overcast
2:28 PM 19.4 °F 5.0 °F 12.2 °F 74% 30.02 in 7.0 mi NW 16.1 mph 23.0 mph N/A   Overcast
2:40 PM 19.4 °F 4.5 °F 12.2 °F 74% 30.02 in 8.0 mi NW 17.3 mph 23.0 mph N/A   Overcast
2:53 PM 19.0 °F 3.2 °F 12.0 °F 74% 30.06 in 9.0 mi NW 19.6 mph 25.3 mph N/A   Overcast
3:53 PM 19.0 °F 6.1 °F 12.0 °F 74% 30.08 in 10.0 mi NW 12.7 mph - N/A   Overcast
4:53 PM 19.9 °F 7.9 °F 12.9 °F 74% 30.10 in 10.0 mi NW 11.5 mph - N/A   Overcast
5:53 PM 21.0 °F 8.1 °F 15.1 °F 78% 30.14 in 10.0 mi NW 13.8 mph - N/A   Overcast
6:53 PM 21.0 °F 9.3 °F 16.0 °F 81% 30.17 in 10.0 mi NW 11.5 mph - N/A   Overcast
7:53 PM 19.9 °F 7.3 °F 15.1 °F 81% 30.19 in 10.0 mi NW 12.7 mph - N/A   Overcast
8:53 PM 19.0 °F 4.5 °F 12.9 °F 77% 30.19 in 10.0 mi NNW 16.1 mph - N/A   Overcast
9:53 PM 17.1 °F 3.0 °F 10.9 °F 77% 30.20 in 10.0 mi NNW 13.8 mph - N/A   Overcast
10:53 PM 15.1 °F 1.8 °F 10.0 °F 80% 30.22 in 10.0 mi NNW 11.5 mph - N/A   Overcast
11:53 PM 15.1 °F 1.1 °F 10.0 °F 80% 30.23 in 10.0 mi NNW 12.7 mph - N/A   Overcast